New Paris, IN

12:21 PM EST on December 03, 2016 (GMT -0500)
Goshen Municipal

Weather History for KGSH - January, 2014

Change the Weather History Date:

Sunday, January 12, 2014

  Actual Average Record
Temperature  
Mean Temperature 36 °F -  
Max Temperature 42 °F 28 °F 59 °F (2005)
Min Temperature 30 °F 15 °F -7 °F (1997)
Degree Days  
Heating Degree Days 30    
Moisture  
Dew Point 28 °F    
Average Humidity 77    
Maximum Humidity 86    
Minimum Humidity 62    
Precipitation  
Precipitation 0.00 in - - ()
Sea Level Pressure  
Sea Level Pressure 29.84 in    
Wind  
Wind Speed 13 mph (SSW)    
Max Wind Speed 21 mph    
Max Gust Speed 31 mph    
Visibility 8 miles    
Events      
Averages and records for this station are not official NWS values.
T = Trace of Precipitation, MM = Missing Value Source: NWS Daily Summary

Daily Weather History Graph

Daily Weather History Graph

Search for Another Location

Airport or City:

Trip Planner

Search our weather history database for the weather conditions in past years. The results will help you decide how hot, cold, wet, or windy it might be!

Date:

Astronomy

Jan. 12, 2014 Rise Set
Actual Time 8:08 AM EST 5:34 PM EST
Civil Twilight 7:37 AM EST 6:05 PM EST
Nautical Twilight 7:03 AM EST 6:39 PM EST
Astronomical Twilight 6:30 AM EST 7:13 PM EST
Moon 3:02 PM EST (1/12) 5:06 AM EST (1/12)
Length of Visible Light 10h 27m
Length of Day
9h 26m
Waxing Gibbous, 89% of the Moon is Illuminated
Jan 12
Waxing Gibbous
Jan 15
Full
Jan 24
Last Quarter
Jan 30
New
Feb 6
First Quarter

Hourly Weather History & Observations

Time (EST) Temp. Windchill Dew Point Humidity Pressure Visibility Wind Dir Wind Speed Gust Speed Precip Events Conditions
12:19 AM 33.8 °F 25.3 °F 28.4 °F 81% 29.73 in 3.0 mi West 11.5 mph - N/A   Overcast
12:51 AM 33.8 °F 25.8 °F 28.4 °F 81% 29.73 in 5.0 mi West 10.4 mph - N/A   Overcast
12:53 AM 33.1 °F 25.5 °F 28.9 °F 85% 29.75 in 5.0 mi West 9.2 mph - N/A   Overcast
1:53 AM 34.0 °F 25.0 °F 28.9 °F 82% 29.77 in 6.0 mi West 12.7 mph - N/A   Haze
2:53 AM 33.1 °F 24.4 °F 28.9 °F 85% 29.81 in 5.0 mi West 11.5 mph - N/A   Overcast
3:53 AM 33.1 °F 23.4 °F 27.0 °F 78% 29.84 in 8.0 mi West 13.8 mph - N/A   Overcast
4:53 AM 33.1 °F 23.9 °F 27.0 °F 78% 29.87 in 6.0 mi West 12.7 mph - N/A   Haze
5:53 AM 32.0 °F 24.2 °F 26.1 °F 79% 29.87 in 6.0 mi WSW 9.2 mph - N/A   Haze
6:53 AM 32.0 °F 23.6 °F 26.1 °F 79% 29.89 in 7.0 mi WSW 10.4 mph - N/A   Overcast
7:38 AM 30.2 °F 21.3 °F 26.6 °F 86% 29.87 in 8.0 mi SW 10.4 mph - N/A   Overcast
7:53 AM 30.9 °F 21.7 °F 26.1 °F 82% 29.91 in 8.0 mi SW 11.5 mph - N/A   Overcast
8:53 AM 30.9 °F 21.2 °F 26.1 °F 82% 29.94 in 6.0 mi SW 12.7 mph - N/A   Haze
9:53 AM 30.9 °F 21.7 °F 27.0 °F 85% 29.96 in 5.0 mi SSW 11.5 mph - N/A   Overcast
10:12 AM 30.2 °F 18.9 °F 26.6 °F 86% 29.95 in 5.0 mi SSW 16.1 mph - N/A   Haze
10:53 AM 32.0 °F 21.6 °F 27.0 °F 82% 29.98 in 7.0 mi South 15.0 mph - N/A   Overcast
11:53 AM 32.0 °F 22.1 °F 28.0 °F 85% 29.95 in 8.0 mi South 13.8 mph - N/A   Overcast
12:53 PM 33.1 °F 23.0 °F 28.0 °F 82% 29.91 in 6.0 mi South 15.0 mph - N/A   Haze
1:05 PM 33.8 °F 25.3 °F 28.4 °F 81% 29.87 in 7.0 mi South 11.5 mph - N/A   Scattered Clouds
1:53 PM 35.1 °F 25.5 °F 28.0 °F 76% 29.87 in 8.0 mi South 15.0 mph - N/A   Clear
2:53 PM 35.1 °F 27.4 °F 28.0 °F 76% 29.86 in 10.0 mi South 10.4 mph - N/A   Clear
3:53 PM 36.0 °F 26.7 °F 28.0 °F 73% 29.83 in 10.0 mi South 15.0 mph - N/A   Clear
4:53 PM 37.0 °F 27.7 °F 27.0 °F 67% 29.82 in 10.0 mi South 16.1 mph - N/A   Clear
5:53 PM 37.9 °F 27.6 °F 28.0 °F 68% 29.80 in 10.0 mi South 20.7 mph 27.6 mph N/A   Clear
6:53 PM 39.0 °F 29.6 °F 28.9 °F 67% 29.78 in 10.0 mi South 18.4 mph 24.2 mph N/A   Clear
7:53 PM 39.9 °F 30.2 °F 30.0 °F 68% 29.75 in 10.0 mi South 20.7 mph 26.5 mph N/A   Clear
8:53 PM 41.0 °F 31.9 °F 30.0 °F 65% 29.75 in 10.0 mi South 19.6 mph 31.1 mph N/A   Clear
9:53 PM 41.0 °F 32.5 °F 30.0 °F 65% 29.75 in 10.0 mi South 17.3 mph 24.2 mph N/A   Clear
10:53 PM 41.0 °F 33.5 °F 30.0 °F 65% 29.75 in 10.0 mi South 13.8 mph - N/A   Clear
11:53 PM 42.1 °F 34.2 °F 30.0 °F 62% 29.73 in 10.0 mi South 16.1 mph - N/A   Clear